Voltar ao catálogo

OPS 9341

IDSCS 19

LostMilitarMEO
NORAD 3284·PAYLOAD·🇺🇸 United States

Lançado Jun 13, 1968 de Cape Canaveral Space Force Station

Loading…

Próximas Passagens (próximas 24 horas)

TLE

ObsoletoSource: Space-Track

Época: Aug 1, 2026, 05:14 UTC

1  3284U 68050A   26213.21808022 -.00000113  00000-0  00000+0 0  9998
2  3284   7.3005  51.2431 0014030 153.7413  79.2269  1.07854941 50696

Acompanhe OPS 9341 em tempo real com AllMySat

Download on the App Store